Probability
19 20 20 19 20 20 20 18 16 16 18 19 17 17 16 14 12 12 12 14 17 17 14 11 9 8 6 4 2 1 1 1 2 2 1 0 0 0 0 1 2 2 1
17 17 18 17 17 16 15 14 11 10 13 15 15 15 14 11 10 9 10 11 13 13 10 8 8 7 6 4 3 2 2 1 1 2 1 0 0 0 0 0 1 1 0
10 11 11 12 11 11 10 8 6 5 8 11 13 13 11 9 8 7 7 7 8 7 6 5 5 5 4 3 3 3 3 2 2 1 1 0 0 0 0 0 0 0 0
4 4 5 5 5 5 4 4 4 3 5 7 10 10 9 8 7 6 4 4 4 4 4 4 4 4 3 3 3 3 3 3 2 1 0 0 0 0 0 0 0 0 0
1 2 2 2 1 1 1 2 2 1 1 3 6 7 7 7 6 4 4 3 3 3 2 2 2 2 3 3 3 3 3 3 2 1 0 0 0 0 0 0 0 0 0
0 1 1 1 0 0 0 1 1 0 0 1 3 6 7 6 6 5 4 3 2 1 1 1 1 1 1 2 2 2 2 2 2 1 0 0 0 0 0 0 0 0 0
0 0 0 0 0 0 0 0 0 0 0 1 3 5 6 7 6 5 3 1 1 0 0 0 0 0 0 1 1 1 1 1 1 0 0 0 0 0 0 0 0 0 0
0 0 0 0 0 0 0 0 0 0 0 1 2 3 4 4 3 2 1 0 0 0 0 0 0 0 0 0 0 0 0 0 0 0 0 0 0 0 0 0 0 0 0
0 0 0 0 0 0 0 0 0 0 0 0 1 2 1 1 1 0 0 0 0 0 0 0 0 0 0 0 0 0 0 0 0 0 0 0 0 0 0 0 0 0 0
0 0 0 0 0 0 0 0 0 0 0 0 0 0 0 0 0 0 0 0 0 0 0 0 0 0 0 0 0 0 0 0 0 0 0 0 0 0 0 0 0 0 0
0 0 0 0 0 0 0 0 0 0 0 0 0 0 0 0 0 0 0 0 0 0 0 0 0 0 0 0 0 0 0 0 0 0 0 0 0 0 0 0 0 0 0
0 0 0 0 0 0 0 0 0 0 0 0 0 0 0 0 0 0 0 0 0 0 0 0 0 0 0 0 0 0 0 0 0 0 0 0 0 0 0 0 0 0 0
0 0 0 0 0 0 0 0 0 0 0 0 0 0 0 0 0 0 0 0 0 0 0 0 0 0 0 0 0 0 0 0 0 0 0 0 0 0 0 0 0 0 0
0 0 0 0 0 0 0 0 0 0 0 0 0 0 0 0 0 0 0 0 0 0 0 0 0 0 0 0 0 0 0 0 0 0 0 0 0 0 0 0 0 0 0
0 0 0 0 0 0 0 0 0 0 0 0 0 0 0 0 0 0 0 0 0 0 0 0 0 0 0 0 0 0 0 0 0 0 0 0 0 0 0 0 0 0 0
0 0 0 0 0 0 0 0 0 0 0 0 0 0 0 0 0 0 0 0 0 0 0 0 0 0 0 0 0 0 0 0 0 0 0 0 0 0 0 0 0 0 0
0 0 0 0 0 0 0 0 0 0 0 0 0 0 0 0 0 0 0 0 0 0 0 0 0 0 0 0 0 0 0 0 0 0 0 0 0 0 0 0 0 0 0
0 0 0 0 0 0 0 0 0 0 0 0 0 0 0 0 0 0 0 0 0 0 0 0 0 0 0 0 0 0 0 0 0 0 0 0 0 0 0 0 0 0 0
0 0 0 0 0 0 0 0 0 0 0 0 0 0 0 0 0 0 0 0 0 0 0 0 0 0 0 0 0 0 0 0 0 0 0 0 0 0 0 0 0 0 0
0 0 0 0 0 0 0 0 0 0 0 0 0 0 0 0 0 0 0 0 0 0 0 0 0 0 0 0 0 0 0 0 0 0 0 0 0 0 0 0 0 0 0
0 0 0 0 0 0 0 0 0 0 0 0 0 0 0 0 0 0 0 0 0 0 0 0 0 0 0 0 0 0 0 0 0 0 0 0 0 0 0 0 0 0 0
0 0 0 0 0 0 0 0 0 0 0 0 0 0 0 0 0 0 0 0 0 0 0 0 0 0 0 0 0 0 0 0 0 0 0 0 0 0 0 0 0 0 0
0 0 0 0 0 0 0 0 0 0 0 0 0 0 0 0 0 0 0 0 0 0 0 0 0 0 0 0 0 0 0 0 0 0 0 0 0 0 0 0 0 0 0
0 0 0 0 0 0 0 0 0 0 0 0 0 0 0 0 0 0 0 0 0 0 0 0 0 0 0 0 0 0 0 0 0 0 0 0 0 0 0 0 0 0 0
0 0 0 0 0 0 0 0 0 0 0 0 0 0 0 0 0 0 0 0 0 0 0 0 0 0 0 0 0 0 0 0 0 0 0 0 0 0 0 0 0 0 0
0 0 0 0 0 0 0 0 0 0 0 0 0 0 0 0 0 0 0 0 0 0 0 0 0 0 0 0 0 0 0 0 0 0 0 0 0 0 0 0 0 0 0
Wind_Speed
6 8 8 8 7 7 6 5 4 2 1 2 2 2 2 1 1 1 1 1 2 2 3 3 3 4 3 4 5 4 5 4 5 5 4 4 5 5 4 4 5 6 6
7 9 9 9 8 7 7 5 4 2 1 0 2 2 3 2 1 1 1 1 1 2 2 3 3 3 3 4 6 5 4 4 5 4 4 3 2 3 4 3 4 5 5
7 7 8 9 8 8 8 6 6 5 3 1 1 3 3 2 1 1 1 2 2 0 1 1 2 3 3 4 6 7 7 6 4 3 4 5 5 3 2 3 4 4 5
6 6 7 8 8 7 7 7 7 6 5 3 2 2 2 2 2 1 1 3 4 3 2 1 1 1 2 3 4 6 5 7 6 3 2 2 5 5 4 2 3 4 4
5 6 7 7 8 8 7 7 7 7 7 5 4 3 3 3 3 3 4 4 4 5 5 5 3 2 2 1 2 4 5 4 5 4 3 3 3 3 5 5 4 3 4
5 6 6 7 8 8 8 7 8 8 8 7 6 5 4 4 4 5 4 4 3 5 7 6 5 5 4 3 2 2 3 3 4 3 3 4 4 4 4 5 6 4 3
4 5 6 7 8 9 9 8 8 9 9 8 7 7 6 5 5 5 5 5 4 5 7 6 6 5 5 5 5 5 4 3 4 4 3 3 2 3 4 7 6 4 3
5 5 6 6 7 8 8 9 9 8 8 8 8 7 7 5 5 6 6 6 5 5 6 7 7 7 7 7 7 6 6 6 6 6 5 4 3 4 5 6 7 6 3
5 5 5 6 7 8 8 9 8 8 8 8 8 8 8 8 8 7 7 6 6 6 7 8 8 8 8 8 8 7 8 8 7 7 7 6 4 4 4 5 6 7 5
5 5 4 5 6 6 7 8 8 8 8 8 8 8 9 9 8 8 9 8 7 7 8 9 8 9 9 8 8 8 8 10 8 6 8 8 5 5 5 5 4 4 5
5 4 4 5 5 6 7 8 8 8 8 8 8 9 9 9 9 9 9 8 8 8 9 8 9 9 9 8 9 9 9 10 9 8 9 9 7 6 5 5 5 5 5
6 5 5 5 5 6 7 7 8 8 8 8 9 9 9 9 9 9 9 8 9 9 8 8 9 9 9 8 9 10 10 10 10 9 9 9 7 8 6 6 6 5 5
7 6 5 5 5 6 7 7 7 7 7 8 9 9 9 9 9 9 8 8 9 9 9 9 9 9 9 9 9 10 10 10 9 9 9 8 9 9 6 7 7 6 6
8 6 5 5 5 5 6 6 7 7 7 8 9 9 9 9 8 8 8 8 8 9 9 9 9 8 8 9 9 10 10 10 10 9 9 8 8 7 7 7 7 7 7
8 7 6 5 5 5 5 6 6 6 7 8 9 8 8 8 8 8 8 8 8 9 8 9 9 8 7 7 8 8 9 9 9 9 9 9 10 10 7 6 6 7 6
9 8 7 6 6 5 6 6 6 6 6 8 8 7 8 8 8 8 8 8 8 8 9 9 8 8 6 9 11 9 8 8 8 8 8 9 10 12 12 11 9 7 6
10 9 8 6 6 6 6 6 5 6 7 7 7 7 7 8 7 8 8 8 8 8 9 8 8 8 8 11 12 12 8 8 8 7 7 7 7 8 8 10 12 10 8
10 9 8 7 6 5 5 5 6 6 6 6 6 6 7 7 7 8 8 7 6 6 6 7 7 7 8 11 12 12 9 9 8 7 7 7 7 6 6 7 7 6 5
9 8 7 7 6 6 6 6 6 5 6 6 6 6 6 7 7 7 6 5 5 6 6 5 7 7 7 9 10 9 7 7 7 7 7 6 6 7 7 7 6 5 4
9 9 8 8 7 6 6 6 6 5 5 5 5 5 6 6 6 6 5 4 5 6 6 7 7 7 6 8 9 8 5 6 4 4 5 7 7 6 6 5 4 4 3
10 10 9 7 6 6 6 6 6 5 5 5 6 6 5 5 5 5 5 5 6 6 6 7 7 7 7 7 9 8 4 4 3 3 3 3 6 5 4 3 2 0 1
10 10 9 7 6 5 6 7 5 4 5 6 6 5 4 4 5 6 5 5 6 6 5 5 6 5 6 7 7 9 7 4 3 2 2 3 4 4 3 2 1 2 2
10 8 9 8 6 5 6 7 5 5 6 6 6 5 5 5 5 5 5 4 4 4 3 4 4 4 4 5 8 9 8 6 3 1 3 3 4 4 4 5 5 3 2
9 8 9 8 6 5 5 5 6 6 7 6 5 4 5 5 5 4 3 4 3 3 3 3 3 2 3 3 3 3 3 4 3 3 4 5 6 5 4 4 4 3 2
7 7 8 7 6 6 5 5 6 7 6 5 5 5 5 5 5 5 4 3 2 1 3 2 2 2 2 1 2 2 2 2 2 2 2 3 3 4 4 3 3 3 3
8 8 7 7 6 6 6 5 6 7 7 5 4 4 4 4 4 4 4 8 5 4 4 4 4 1 1 1 2 3 3 3 2 3 2 2 2 2 3 3 3 3 3
Wind_Direction
44 38 34 32 36 38 42 50 51 40 85 119 143 155 167 154 124 116 125 207 203 187 191 209 205 199 189 183 172 158 157 150 138 122 107 73 63 68 70 84 95 90 86
43 35 30 28 27 28 25 26 24 357 37 84 145 144 126 120 113 79 42 328 267 219 202 207 208 202 192 184 178 166 160 162 164 149 134 132 101 66 61 78 98 98 91
49 37 29 22 22 24 16 8 5 358 7 37 93 111 107 115 104 62 12 1 349 287 176 202 198 196 198 198 189 178 175 176 180 168 149 158 165 133 75 66 83 96 94
50 37 29 21 18 14 12 12 9 9 14 34 69 98 113 112 95 91 56 34 27 28 43 81 126 182 168 184 195 188 180 172 175 169 166 144 139 144 136 96 77 88 92
53 39 27 22 19 14 14 14 19 21 20 29 49 78 86 92 88 89 73 49 37 34 35 44 50 63 89 126 173 180 174 174 175 166 151 122 101 111 135 143 136 92 68
61 43 28 25 22 19 20 21 25 24 22 30 43 65 89 99 101 87 74 55 44 37 35 44 45 45 50 49 59 105 144 158 158 153 149 151 149 151 136 138 140 119 86
79 53 33 26 24 21 20 21 30 29 25 34 44 52 66 77 83 82 76 69 53 42 32 43 47 47 51 54 57 65 71 96 117 121 120 114 117 130 126 127 126 110 95
82 63 42 32 27 24 25 25 30 31 31 40 45 50 60 65 64 66 70 68 63 55 46 51 55 55 58 62 64 65 65 68 77 85 93 91 85 105 124 131 133 121 97
96 75 53 41 33 29 28 27 30 34 36 43 52 55 58 65 67 64 65 65 60 61 56 56 59 57 58 61 67 69 68 68 67 69 76 79 75 81 89 112 130 134 134
105 84 61 49 41 33 33 36 36 37 40 45 52 60 60 62 66 67 66 65 60 61 64 59 60 61 60 62 68 69 68 72 64 64 71 68 68 76 85 96 90 98 121
120 97 76 59 52 45 44 45 42 42 44 49 56 61 61 62 64 65 63 64 62 60 63 63 63 63 61 62 68 69 69 71 67 64 70 68 69 78 78 85 88 88 102
114 98 82 66 57 54 50 48 47 49 49 54 61 61 61 61 63 63 61 63 63 60 61 64 64 64 62 61 67 69 67 69 68 65 68 67 74 73 72 79 83 85 90
122 108 88 72 63 60 58 54 53 56 57 62 67 65 62 62 63 63 61 62 65 63 60 62 64 62 62 63 65 69 69 67 65 64 67 66 75 74 74 78 82 84 86
131 121 105 88 77 71 67 66 61 59 64 67 69 67 64 66 66 65 63 61 64 66 65 63 62 61 63 66 69 71 70 68 63 60 61 62 71 79 82 82 85 90 89
137 131 122 110 96 86 78 75 72 67 72 74 72 71 71 70 68 65 63 63 62 64 65 66 60 57 59 66 75 73 73 70 65 57 54 58 67 73 78 92 96 99 97
144 138 131 124 113 105 96 87 80 76 77 77 75 72 73 72 68 66 65 64 61 58 60 59 61 57 57 70 77 80 72 67 65 60 53 54 54 62 69 80 86 95 105
146 142 137 130 123 115 109 100 94 89 85 81 79 77 76 77 75 76 70 65 60 60 59 54 60 60 56 70 78 77 76 67 60 56 54 55 48 55 67 67 65 64 74
143 137 132 126 120 113 106 103 99 94 91 88 86 83 83 82 80 77 74 68 63 62 60 54 57 62 56 72 81 80 75 69 61 56 58 63 49 51 72 76 68 59 51
134 131 130 128 122 115 112 107 101 96 93 91 93 91 91 89 84 81 76 70 71 65 59 54 54 60 50 65 82 83 76 69 58 52 52 58 57 54 72 78 71 55 27
126 127 127 123 120 117 113 108 107 103 99 97 97 93 91 91 91 90 82 74 76 72 68 60 51 56 51 59 77 82 81 73 59 45 40 45 51 53 68 77 74 52 7
128 129 127 124 123 122 118 113 109 105 103 101 98 90 88 94 97 90 87 91 87 78 69 64 52 47 44 52 67 76 82 86 70 47 24 13 20 40 64 90 91 32 336
129 129 127 123 121 122 119 114 108 105 103 100 95 87 80 87 99 97 91 91 92 85 72 67 54 40 35 41 55 66 74 81 77 43 355 335 0 40 56 63 55 81 86
130 129 130 126 123 126 125 121 118 112 104 95 90 85 79 76 89 103 106 94 88 90 80 76 67 40 29 34 46 51 53 56 59 5 352 11 39 53 50 49 55 66 67
131 130 129 130 129 128 122 123 124 117 108 103 95 86 86 81 73 76 91 106 110 105 100 95 87 57 34 26 21 21 24 29 32 16 18 38 51 54 51 46 40 41 43
126 129 131 132 132 128 123 127 128 121 112 105 100 92 88 93 84 72 59 83 88 162 143 137 127 110 68 345 350 7 360 350 354 25 38 35 30 30 27 29 31 30 35
129 130 130 131 132 128 126 128 131 128 123 113 106 103 101 95 95 96 75 50 58 85 119 132 135 115 173 261 360 7 3 7 62 75 57 40 30 27 18 12 10 18 21